Location: Étouvelles
(49.5207°N, 3.5808°E)
Time: 11:45:44
(UTC+00:00)

PSLV R/B - Pass Details

Date: 03 February 2023
Orbit: 491 x 557 km, 97.8° (Epoch: 24 March)

Event Time Altitude Azimuth Distance (km) Brightness Sun altitude
Rises 17:33:37 0° 137° (SE) 2,572 7.0 -8.3°
Reaches altitude 10° 17:35:51 10° 126° (SE) 1,701 6.0 -8.7°
Maximum altitude 17:39:00 28° 66° (ENE) 981 4.5 -9.2°
Drops below altitude 10° 17:42:13 10° 7° (N) 1,741 6.2 -9.7°
Sets 17:44:32 0° 356° (N) 2,646 7.2 -10.1°
